STARLINK-34277, 64156

Orbit data source: Space-Track

STARLINK-34277, 64156 is a payload satellite owned by SpaceX/Seattle (US) in SSO that was launched on Tue, 27 May 2025 UTC via an FALCON 9 launch vehicle from the Air Force Western Test Range (AFWTR). Payload-class satellites include a variety of spacecraft equipped with specific instruments for various scientific and technological missions. These include communications satellites like Starlink; space stations such as the ISS; scientific satellites like the Hubble; Earth observation satellites from companies like Planet Labs, Umbra, and HawkEye 360; GPS; miniature CubeSats for education and research; and military/defense satellites.

Loading next visibility...
Identifier
64156, 2025-112L
Orbit
SSO
Country
Flag of USUS
Related business
Manufacturer
SpaceX/Seattle
Mission
Operational Commercial Communications
Bus & Motor
STARLINK V2MO, Unknown motor
Mass
575 kg wet, ~530 kg dry
Launch date (UTC)
2025-05-27 (1 year ago)
Launch vehicle
FALCON 9
Launch site
Air Force Western Test Range (AFWTR)
Object type
Payload
Rocket body
Debris
Shape & HBR
Box + 2 Pan, 17.7 m
Radar Cross Section
36.964 m², Large (>1 m²)

Expand to show TLE details & history
Last TLE update: 17 hours ago

TLE from 17 hours ago
0 STARLINK-34277
1 64156U 25112L   26197.66731207  .00003073  00000-0  21672-3 0  9994
2 64156  97.2842 246.4926 0002105 104.7460 255.4001 15.05664553 62712
Epoch: 2026-07-16T16:00Z
TLE epoch observation values (Epoch: 2026-07-16T16:00:55.762Z)
Latitude
-0.00005°
Longitude
71.75479°
Altitude
552.909 km
Speed
7.585 km/s
True Right ascension
16h 25m 58s
True Declination
0° 00' 00"
Sunlit
Object was in full shadow at epoch
Visualization orbit readout
Latitude
Unknown
Longitude
Unknown
Altitude
Unknown
Speed
Unknown
Apparent Right ascension
Unknown
Apparent Declination
Unknown
Sunlit
N/A
Visualization observer readout
Local Sidereal Time
21:59:51
Azimuth
Unknown
Elevation
Unknown
Doppler factor
Unknown
Orbital elements
Apogee altitude
547.904 km
Perigee altitude
544.989 km
Semi-major axis
6,924.583 km
Eccentricity
0.00021
Inclination
97.2842°
RAAN
246.4926°
Arg. of periapsis
104.746°
True anomaly
255.37676°
Mean anomaly
255.4001°
Eccentric anomaly
255.38843°
Mean motion
3.76663 °/min
Orbital period
95.58 mins
BSTAR
0.00021672
Loading maneuver chart data...
Computing Atmospheric mass density...
Loading historical data...
Loading historical data...
Loading historical data...
Loading historical data...
Loading historical data...
Loading historical data...
Loading historical data...

Documentation

Showing up to 5 results
|